Flag for Poland Weather past 2 weeks in Szczecin, Poland

Now
59 °F

Passing clouds.


Feels Like: 58 °F
Forecast: 55 / 67 °F
Wind: 7 mph from Southwest

Location: Szczecin Airport

Current Time: Jul 29, 2015 at 12:37:02 AM

Latest Report: Jul 29, 2015 at 12:00 AM


Visibility: N/A

Pressure: 29.65 "Hg

Humidity: 77%

Dew point: 52 °F

Location of SzczecinLocation

Historic Weather in Szczecin — Graph

°F

Szczecin temperature yesterday

Maximum temperature yesterday: 68 °F (at 4:30 PM)
Minimum temperature yesterday: 57 °F (at 12:00 AM)
Average temperature yesterday: 62 °F

Past Weeks' High & Low Weather Summary

 TemperatureHumidityPressure
High81 °F (Jul 22, 2:00 PM)100% (Jul 14, 3:00 AM)30.09 "Hg (Jul 14, 3:00 AM)
Low48 °F (Jul 27, 1:00 AM)38% (Jul 24, 4:00 PM)29.50 "Hg (Jul 25, 5:30 PM)
Average64 °F74%29.86 "Hg
* Reported Jul 13 10:00 PM — Jul 28 10:30 PM, Szczecin, Weather by CustomWeather, © 2015

Note: Actual official high and low records may vary slightly from our data, if they occured in-between our weather recording intervals... More about our weather records

Advertising

Szczecin weather history for previous 24 hours

 ConditionsComfort  
Time TempWeatherWind HumidityBarometerVisibility
10:30 PM
Tue, Jul 28
61 °FClear.6 mph77%29.62 "Hg10 mi
10:00 PM61 °FScattered clouds.6 mph77%29.62 "HgN/A
9:30 PM61 °FScattered clouds.6 mph77%29.62 "HgN/A
9:00 PM61 °FPassing clouds.6 mph83%29.62 "HgN/A
8:00 PM63 °FSunny.5 mph83%29.59 "Hg10 mi
7:30 PM63 °FPassing clouds.5 mph88%29.59 "HgN/A
7:00 PM63 °FSunny.5 mph88%29.59 "Hg10 mi
6:30 PM61 °FPassing clouds.6 mph94%29.59 "HgN/A
6:00 PM59 °FSprinkles. Partly sunny.6 mph88%29.59 "HgN/A
5:30 PM64 °FPartly sunny.15 mph64%29.59 "HgN/A
5:00 PM66 °FPartly sunny.12 mph60%29.59 "HgN/A
4:30 PM68 °FPassing clouds.12 mph56%29.59 "HgN/A
4:00 PM66 °FScattered clouds.12 mph60%29.59 "HgN/A
3:30 PM64 °FScattered clouds.13 mph64%29.59 "HgN/A
3:00 PM64 °FScattered clouds.13 mph68%29.59 "HgN/A
2:30 PM64 °FScattered clouds.16 mph68%29.59 "HgN/A
2:00 PM66 °FScattered clouds.13 mph64%29.56 "HgN/A
1:30 PM64 °FScattered clouds.12 mph73%29.56 "HgN/A
1:00 PM63 °FSprinkles. Scattered clouds.14 mph77%29.56 "HgN/A
12:30 PM64 °FScattered clouds.14 mph68%29.56 "HgN/A
12:00 PM64 °FScattered clouds.10 mph73%29.56 "HgN/A
11:30 AM64 °FScattered clouds.13 mph73%29.56 "HgN/A
11:00 AM64 °FScattered clouds.12 mph73%29.56 "HgN/A
10:30 AM64 °FScattered clouds.12 mph73%29.56 "HgN/A
10:00 AM64 °FScattered clouds.12 mph73%29.53 "HgN/A
9:30 AM61 °FBroken clouds.14 mph83%29.53 "HgN/A
9:00 AM61 °FBroken clouds.10 mph88%29.53 "HgN/A
8:30 AM61 °FPartly sunny.9 mph88%29.53 "HgN/A
8:00 AM61 °FPartly sunny.9 mph88%29.53 "HgN/A
7:30 AM59 °FPartly sunny.7 mph94%29.53 "HgN/A
7:00 AM59 °FBroken clouds.6 mph94%29.53 "HgN/A
6:30 AM59 °FBroken clouds.6 mph94%29.53 "HgN/A
6:00 AM59 °FPartly cloudy.6 mph94%29.53 "HgN/A
5:30 AM59 °FPartly cloudy.5 mph94%29.53 "HgN/A
5:00 AM59 °FPartly cloudy.2 mph94%29.53 "Hg5 mi
4:30 AM59 °FSprinkles. Partly cloudy.8 mph94%29.53 "Hg5 mi
4:00 AM59 °FPassing clouds.6 mph94%29.53 "HgN/A
3:30 AM59 °FPartly cloudy.8 mph94%29.53 "HgN/A
3:00 AM59 °FPartly cloudy.6 mph94%29.53 "HgN/A
2:30 AM59 °FPartly cloudy.6 mph94%29.53 "HgN/A
2:00 AM59 °FPartly cloudy.6 mph94%29.56 "HgN/A
1:30 AM59 °FSprinkles. Passing clouds.5 mph94%29.56 "HgN/A
1:00 AM59 °FSprinkles. Passing clouds.7 mph94%29.56 "HgN/A
12:30 AM57 °FPassing clouds.5 mph94%29.56 "HgN/A
12:00 AM57 °FPassing clouds.6 mph100%29.56 "HgN/A
Weather by CustomWeather, © 2015

See weather overviewHow to use our weather pages